Location: Boulin
(43.2500°N, 0.1333°E)
Time: 00:53:34
(UTC+00:00)

NOSS 3-2 (C) - Pass Details

Date: 11 December 2025
Orbit: 672 x 1536 km, 63.4° (Epoch: 2 January)

Event Time Altitude Azimuth Distance (km) Brightness Sun altitude
Rises 17:30:09 0° 231° (SW) 3,070 7.7 -11.6°
Reaches altitude 10° 17:32:23 10° 236° (SW) 2,209 6.8 -12.0°
Maximum altitude 17:37:15 53° 313° (NW) 984 3.7 -12.9°
Drops below altitude 10° 17:43:05 10° 30° (NNE) 2,633 5.3 -13.9°
Enters shadow 17:43:09 10° 30° (NNE) 2,653 5.3 -13.9°
